Weather History for Chippewa, MI

Change the Weather History Date:

Saturday, November 5, 2011

  Actual Average Record
Temperature  
Mean Temperature 38 °F -  
Max Temperature 48 °F 44 °F 66 °F (2008)
Min Temperature 28 °F 27 °F 15 °F (1983)
Degree Days  
Heating Degree Days 27    
Moisture  
Dew Point 29 °F    
Average Humidity 71    
Maximum Humidity 87    
Minimum Humidity 50    
Precipitation  
Precipitation 0.00 in - - ()
Sea Level Pressure  
Sea Level Pressure 30.26 in    
Wind  
Wind Speed 10 mph (SSE)    
Max Wind Speed 14 mph    
Max Gust Speed 18 mph    
Visibility 10 miles    
Events      
Averages and records for this station are not official NWS values.
T = Trace of Precipitation, MM = Missing Value Source: NWS Daily Summary

Daily Weather History Graph

Daily Weather History Graph

Search for Another Location

Airport:

Trip Planner

Search our weather history database for the weather conditions in past years. The results will help you decide how hot, cold, wet, or windy it might be!

Date:

Astronomy

Nov. 05, 2011 Rise Set
Actual Time 8:24 AM EDT 6:17 PM EDT
Civil Twilight 7:52 AM EDT 6:49 PM EDT
Nautical Twilight 7:16 AM EDT 7:25 PM EDT
Astronomical Twilight 6:41 AM EDT 8:00 PM EDT
Moon 3:48 PM EDT (11/5) 3:18 AM EDT (11/5)
Length of Visible Light 10h 57m
Length of Day
9h 53m
Waxing Gibbous, 78% of the Moon is Illuminated
Nov 5
Waxing Gibbous
Nov 10
Full
Nov 18
Last Quarter
Nov 25
New
Dec 2
First Quarter

Hourly Weather History & Observations

Time (EDT) Temp. Windchill Dew Point Humidity Pressure Visibility Wind Dir Wind Speed Gust Speed Precip Events Conditions
12:15 AM 32.0 °F 23.0 °F 26.6 °F 80% 30.32 in 10.0 mi SSE 11.5 mph - N/A   Clear
12:35 AM 32.0 °F 23.6 °F 26.6 °F 80% 30.32 in 10.0 mi SE 10.4 mph - N/A   Clear
12:55 AM 30.2 °F 23.4 °F 26.6 °F 86% 30.32 in 10.0 mi SE 6.9 mph - N/A   Clear
1:55 AM 30.2 °F 23.4 °F 26.6 °F 86% 30.33 in 10.0 mi SE 6.9 mph - N/A   Clear
2:15 AM 30.2 °F 21.9 °F 26.6 °F 86% 30.33 in 10.0 mi SE 9.2 mph - N/A   Clear
2:35 AM 30.2 °F 21.3 °F 26.6 °F 86% 30.32 in 10.0 mi SSE 10.4 mph - N/A   Clear
2:55 AM 32.0 °F 23.0 °F 28.4 °F 87% 30.31 in 10.0 mi SSE 11.5 mph - N/A   Clear
3:15 AM 32.0 °F 23.6 °F 26.6 °F 80% 30.31 in 10.0 mi SE 10.4 mph - N/A   Clear
3:35 AM 32.0 °F 23.0 °F 28.4 °F 87% 30.31 in 10.0 mi SSE 11.5 mph - N/A   Clear
3:55 AM 33.8 °F 25.3 °F 28.4 °F 81% 30.31 in 10.0 mi SSE 11.5 mph - N/A   Clear
4:15 AM 32.0 °F 23.6 °F 28.4 °F 87% 30.31 in 10.0 mi SE 10.4 mph - N/A   Clear
4:35 AM 32.0 °F 24.2 °F 28.4 °F 87% 30.31 in 10.0 mi SSE 9.2 mph - N/A   Clear
4:55 AM 33.8 °F 27.0 °F 28.4 °F 81% 30.32 in 10.0 mi SSE 8.1 mph - N/A   Clear
5:15 AM 32.0 °F 24.8 °F 28.4 °F 87% 30.31 in 10.0 mi SSE 8.1 mph - N/A   Clear
5:35 AM 32.0 °F 24.8 °F 28.4 °F 87% 30.31 in 10.0 mi SE 8.1 mph - N/A   Clear
5:55 AM 32.0 °F 24.8 °F 28.4 °F 87% 30.31 in 10.0 mi SE 8.1 mph - N/A   Clear
6:15 AM 30.2 °F 23.4 °F 26.6 °F 86% 30.31 in 10.0 mi SE 6.9 mph - N/A   Clear
6:35 AM 32.0 °F 25.6 °F 28.4 °F 87% 30.31 in 10.0 mi SE 6.9 mph - N/A   Clear
6:55 AM 30.2 °F 22.6 °F 26.6 °F 86% 30.31 in 10.0 mi SSE 8.1 mph - N/A   Clear
8:15 AM 28.4 °F 22.2 °F 24.8 °F 86% 30.31 in 10.0 mi SSE 5.8 mph - N/A   Clear
8:35 AM 30.2 °F 22.6 °F 26.6 °F 86% 30.31 in 10.0 mi SSE 8.1 mph - N/A   Clear
8:55 AM 30.2 °F 22.6 °F 26.6 °F 86% 30.30 in 10.0 mi SE 8.1 mph - N/A   Clear
9:15 AM 32.0 °F 25.6 °F 28.4 °F 87% 30.30 in 10.0 mi SE 6.9 mph - N/A   Clear
9:35 AM 33.8 °F 27.7 °F 30.2 °F 87% 30.30 in 10.0 mi SE 6.9 mph - N/A   Clear
9:55 AM 35.6 °F 29.2 °F 30.2 °F 81% 30.30 in 10.0 mi SE 8.1 mph - N/A   Clear
10:15 AM 37.4 °F 31.4 °F 30.2 °F 75% 30.30 in 10.0 mi SE 8.1 mph - N/A   Clear
10:35 AM 37.4 °F 32.1 °F 32.0 °F 81% 30.30 in 10.0 mi SSE 6.9 mph - N/A   Clear
10:55 AM 39.2 °F 33.6 °F 32.0 °F 75% 30.30 in 10.0 mi SSE 8.1 mph - N/A   Clear
11:15 AM 42.8 °F 37.0 °F 30.2 °F 61% 30.30 in 10.0 mi SSE 10.4 mph - N/A   Clear
11:35 AM 42.8 °F 37.5 °F 32.0 °F 66% 30.30 in 10.0 mi South 9.2 mph - N/A   Clear
11:55 AM 44.6 °F 39.7 °F 30.2 °F 57% 30.29 in 10.0 mi South 9.2 mph 16.1 mph N/A   Clear
12:15 PM 44.6 °F 39.7 °F 30.2 °F 57% 30.28 in 10.0 mi South 9.2 mph - N/A   Clear
12:35 PM 44.6 °F 40.2 °F 28.4 °F 53% 30.28 in 10.0 mi South 8.1 mph - N/A   Clear
12:55 PM 44.6 °F 39.7 °F 28.4 °F 53% 30.27 in 10.0 mi South 9.2 mph - N/A   Clear
1:15 PM 46.4 °F 41.9 °F 30.2 °F 53% 30.25 in 10.0 mi SSW 9.2 mph 17.3 mph N/A   Clear
1:35 PM 46.4 °F 41.5 °F 30.2 °F 53% 30.24 in 10.0 mi SW 10.4 mph - N/A   Clear
1:55 PM 46.4 °F 42.9 °F 30.2 °F 53% 30.24 in 10.0 mi SSW 6.9 mph - N/A   Clear
2:15 PM 46.4 °F 41.1 °F 30.2 °F 53% 30.23 in 10.0 mi South 11.5 mph - N/A   Clear
2:35 PM 48.2 °F - 30.2 °F 50% 30.22 in 10.0 mi South 10.4 mph 18.4 mph N/A   Clear
2:55 PM 48.2 °F - 30.2 °F 50% 30.22 in 10.0 mi SSE 10.4 mph - N/A   Clear
3:15 PM 48.2 °F - 30.2 °F 50% 30.21 in 10.0 mi South 8.1 mph - N/A   Clear
3:35 PM 48.2 °F - 30.2 °F 50% 30.21 in 10.0 mi South 8.1 mph 16.1 mph N/A   Clear
4:35 PM 46.4 °F 40.7 °F 28.4 °F 50% 30.20 in 10.0 mi SSE 12.7 mph - N/A   Clear
4:55 PM 46.4 °F 40.7 °F 28.4 °F 50% 30.19 in 10.0 mi SSE 12.7 mph - N/A   Clear
5:15 PM 46.4 °F 40.4 °F 28.4 °F 50% 30.19 in 10.0 mi SE 13.8 mph - N/A   Clear
5:35 PM 44.6 °F 38.8 °F 28.4 °F 53% 30.18 in 10.0 mi SE 11.5 mph - N/A   Clear
5:55 PM 44.6 °F 38.8 °F 28.4 °F 53% 30.17 in 10.0 mi ESE 11.5 mph - N/A   Clear
6:15 PM 42.8 °F 37.5 °F 28.4 °F 57% 30.17 in 10.0 mi ESE 9.2 mph - N/A   Clear
6:35 PM 42.8 °F 37.0 °F 30.2 °F 61% 30.16 in 10.0 mi ESE 10.4 mph - N/A   Clear
6:55 PM 42.8 °F 37.0 °F 30.2 °F 61% 30.15 in 10.0 mi East 10.4 mph - N/A   Clear
7:15 PM 41.0 °F 33.9 °F 32.0 °F 70% 30.14 in 10.0 mi ESE 12.7 mph - N/A   Clear
7:35 PM 41.0 °F 33.5 °F 33.8 °F 76% 30.14 in 10.0 mi ESE 13.8 mph - N/A   Clear
7:55 PM 41.0 °F 33.9 °F 35.6 °F 81% 30.14 in 10.0 mi ESE 12.7 mph - N/A   Clear
8:15 PM 41.0 °F 34.3 °F 35.6 °F 81% 30.14 in 10.0 mi SE 11.5 mph - N/A   Clear
8:35 PM 41.0 °F 34.3 °F 35.6 °F 81% 30.14 in 10.0 mi ESE 11.5 mph - N/A   Clear
8:55 PM 39.2 °F 32.5 °F 33.8 °F 81% 30.14 in 10.0 mi ESE 10.4 mph - N/A   Clear
9:15 PM 39.2 °F 32.0 °F 33.8 °F 81% 30.13 in 10.0 mi ESE 11.5 mph - N/A   Clear
10:55 PM 37.4 °F 30.3 °F 32.0 °F 81% 30.13 in 10.0 mi SE 10.4 mph - N/A   Clear
11:15 PM 37.4 °F 30.3 °F 32.0 °F 81% 30.12 in 10.0 mi SE 10.4 mph - N/A   Clear
11:35 PM 37.4 °F 30.3 °F 30.2 °F 75% 30.12 in 10.0 mi SE 10.4 mph - N/A   Clear
11:55 PM 37.4 °F 30.8 °F 30.2 °F 75% 30.12 in 10.0 mi SE 9.2 mph - N/A   Clear